Date String (YYYY-MM-DD hh:mm:ss) UTC,Instrument flags,absolute air pressure of the measurement (hPa),sample flow rate (lpm),inlet stack bypass flow (lpm),air temperature of the measurement (°C),ambient temperature measured by the external sensor (°C),aerosol sample conditioner tube jacket temperature (°C),OPC LED temperature (°C),internal box temperature (°C),relative humidity of the measurement (%),span deviation,mass concentration of particles derived from Lorenz-Mie calculation of OPC scattering (μg/m³),mass concentration of particles derived from Lorenz-Mie calculation of OPC scattering (μg/m³),mass concentration of particles derived from Lorenz-Mie calculation of OPC scattering (μg/m³)
DateTimeUTC,F1_M11,P_M11,Q1_M11,Q2_M11,T1_M11,T2_M11,T3_M11,T4_M11,T5_M11,U1_M11,ZSPAN_M11,X0_M11,X2_M11,X1_M11
2024-01-12 00:00:00,SystemResetWarning,0818.3,5.00,000.00,018.9,018.1,000.0,027.3,020.0,6.1,0000.0,0010.64,0004.05,0003.41
2024-01-12 00:01:00,SystemResetWarning,0818.3,5.00,000.00,018.9,018.0,000.0,027.3,020.0,6.1,0000.0,0010.00,0004.02,0003.41
2024-01-12 00:02:00,SystemResetWarning,0818.3,5.00,000.00,018.9,018.0,000.0,027.3,020.0,6.1,0000.0,0009.68,0004.03,0003.42
2024-01-12 00:03:00,SystemResetWarning,0818.4,5.00,000.00,018.9,018.0,000.0,027.3,020.0,6.2,0000.0,0009.45,0004.01,0003.43
2024-01-12 00:04:00,SystemResetWarning,0818.4,5.00,000.00,018.9,018.0,000.0,027.3,020.0,6.2,0000.0,0010.53,0004.05,0003.43
2024-01-12 00:05:00,SystemResetWarning,0818.4,5.00,000.00,018.9,018.0,000.0,027.3,020.0,6.2,0000.0,0010.86,0004.07,0003.42
2024-01-12 00:06:00,SystemResetWarning,0818.4,5.00,000.00,018.9,018.0,000.0,027.3,020.0,6.2,0000.0,0010.93,0004.08,0003.42
2024-01-12 00:07:00,SystemResetWarning,0818.4,5.00,000.00,018.9,018.0,000.0,027.3,020.0,6.3,0000.0,0010.77,0004.10,0003.44
2024-01-12 00:08:00,SystemResetWarning,0818.4,5.00,000.00,018.9,017.9,000.0,027.3,020.0,6.3,0000.0,0010.55,0004.12,0003.44
2024-01-12 00:09:00,SystemResetWarning,0818.5,4.99,000.00,018.9,017.9,000.0,027.3,020.0,6.3,0000.0,0010.31,0004.14,0003.44
2024-01-12 00:10:00,SystemResetWarning,0818.5,5.00,000.00,018.9,017.9,000.0,027.3,020.0,6.3,0000.0,0010.88,0004.17,0003.44
2024-01-12 00:11:00,SystemResetWarning,0818.5,5.00,000.00,018.9,017.9,000.0,027.3,020.0,6.3,0000.0,0011.07,0004.17,0003.44
2024-01-12 00:12:00,SystemResetWarning,0818.5,5.00,000.00,018.8,017.9,000.0,027.3,020.0,6.3,0000.0,0011.08,0004.18,0003.44
2024-01-12 00:13:00,SystemResetWarning,0818.5,5.01,000.00,018.8,017.9,000.0,027.3,020.0,6.3,0000.0,0011.09,0004.17,0003.44
2024-01-12 00:14:00,SystemResetWarning,0818.5,5.00,000.00,018.8,017.9,000.0,027.3,020.0,6.4,0000.0,0010.61,0004.16,0003.44
2024-01-12 00:15:00,SystemResetWarning,0818.6,5.00,000.00,018.8,017.9,000.0,027.3,020.0,6.4,0000.0,0009.94,0004.14,0003.45
2024-01-12 00:16:00,SystemResetWarning,0818.6,5.00,000.00,018.8,017.9,000.0,027.3,020.0,6.4,0003.1,0009.83,0004.17,0003.46
2024-01-12 00:17:00,SystemResetWarning,0818.7,4.99,000.00,018.9,017.9,000.0,027.3,020.0,6.4,0000.6,0010.07,0004.16,0003.46
2024-01-12 00:18:00,SystemResetWarning,0818.6,5.00,000.00,018.9,017.9,000.0,027.3,020.0,6.4,0000.0,0010.26,0004.16,0003.45
2024-01-12 00:19:00,SystemResetWarning,0818.6,5.00,000.00,018.9,018.0,000.0,027.3,020.0,6.4,0000.0,0010.18,0004.12,0003.44
2024-01-12 00:20:00,SystemResetWarning,0818.6,5.00,000.00,018.9,018.0,000.0,027.3,020.0,6.4,0000.0,0009.94,0004.10,0003.44
2024-01-12 00:21:00,SystemResetWarning,0818.6,4.99,000.00,018.9,018.0,000.0,027.3,020.0,6.5,0000.0,0010.03,0004.09,0003.44
2024-01-12 00:22:00,SystemResetWarning,0818.6,5.00,000.00,018.9,017.9,000.0,027.3,020.0,6.5,0000.0,0009.88,0004.12,0003.45
2024-01-12 00:23:00,SystemResetWarning,0818.6,5.01,000.00,018.9,017.9,000.0,027.3,020.0,6.5,0000.0,0010.62,0004.14,0003.47
2024-01-12 00:24:00,SystemResetWarning,0818.6,5.00,000.00,018.9,017.9,000.0,027.3,020.0,6.5,0000.0,0011.23,0004.11,0003.46
2024-01-12 00:25:00,SystemResetWarning,0818.6,5.00,000.00,018.9,017.9,000.0,027.3,020.0,6.5,0000.0,0012.25,0004.09,0003.44
2024-01-12 00:26:00,SystemResetWarning,0818.7,5.00,000.00,018.9,017.9,000.0,027.3,020.0,6.5,0000.0,0011.96,0004.07,0003.43
2024-01-12 00:27:00,SystemResetWarning,0818.6,5.00,000.00,018.9,017.9,000.0,027.3,020.0,6.5,0000.0,0012.02,0004.04,0003.43
2024-01-12 00:28:00,SystemResetWarning,0818.6,5.00,000.00,018.9,017.9,000.0,027.3,020.0,6.5,0000.0,0012.07,0004.06,0003.42
2024-01-12 00:29:00,SystemResetWarning,0818.6,4.99,000.00,018.9,017.9,000.0,027.3,020.0,6.5,0000.0,0012.11,0004.06,0003.41
2024-01-12 00:30:00,SystemResetWarning,0818.6,5.00,000.00,018.9,017.9,000.0,027.3,020.0,6.5,0000.0,0012.18,0004.07,0003.42
2024-01-12 00:31:00,SystemResetWarning,0818.6,5.01,000.00,018.9,017.9,000.0,027.3,020.0,6.5,0000.0,0012.44,0004.07,0003.42
2024-01-12 00:32:00,SystemResetWarning,0818.7,5.01,000.00,018.9,017.9,000.0,027.3,020.1,6.5,0000.0,0011.92,0004.12,0003.43
2024-01-12 00:33:00,SystemResetWarning,0818.7,5.01,000.00,018.9,018.2,000.0,027.3,020.5,6.5,0000.0,0011.90,0004.13,0003.43
2024-01-12 00:34:00,SystemResetWarning,0818.7,5.00,000.00,019.0,018.7,000.0,027.3,020.8,6.5,0000.0,0011.65,0004.14,0003.42
2024-01-12 00:35:00,SystemResetWarning,0818.7,5.00,000.00,019.1,018.8,000.0,027.3,020.6,6.5,0000.0,0010.99,0004.17,0003.42
2024-01-12 00:36:00,SystemResetWarning,0818.7,4.99,000.00,019.1,018.7,000.0,027.3,020.3,6.5,0000.0,0010.38,0004.21,0003.42
2024-01-12 00:37:00,SystemResetWarning,0818.7,4.99,000.00,019.1,018.6,000.0,027.3,020.2,6.5,0000.0,0010.12,0004.26,0003.43
2024-01-12 00:38:00,SystemResetWarning,0818.7,5.01,000.00,019.1,018.6,000.0,027.3,020.2,6.5,0000.0,0009.80,0004.29,0003.43
2024-01-12 00:39:00,SystemResetWarning,0818.7,5.02,000.00,019.0,018.5,000.0,027.3,020.1,6.6,0000.0,0009.59,0004.30,0003.44
2024-01-12 00:40:00,SystemResetWarning,0818.7,5.00,000.00,019.0,018.4,000.0,027.3,020.1,6.6,0000.0,0009.34,0004.31,0003.45
2024-01-12 00:41:00,SystemResetWarning,0818.8,4.99,000.00,019.0,018.4,000.0,027.3,020.1,6.6,0000.0,0010.26,0004.34,0003.46
2024-01-12 00:42:00,SystemResetWarning,0818.8,4.99,000.00,019.0,018.3,000.0,027.3,020.0,6.6,0000.0,0010.67,0004.32,0003.45
2024-01-12 00:43:00,SystemResetWarning,0818.8,5.00,000.00,018.9,018.3,000.0,027.3,020.0,6.6,0000.0,0010.79,0004.27,0003.43
2024-01-12 00:44:00,SystemResetWarning,0818.8,5.00,000.00,018.9,018.2,000.0,027.3,020.0,6.6,0002.2,0011.23,0004.24,0003.42
2024-01-12 00:45:00,SystemResetWarning,0818.9,5.00,000.00,018.9,018.2,000.0,027.3,020.0,6.7,0003.7,0011.84,0004.20,0003.41
2024-01-12 00:46:00,SystemResetWarning,0818.8,5.01,000.00,018.9,018.2,000.0,027.3,020.0,6.7,0003.0,0012.26,0004.16,0003.40
2024-01-12 00:47:00,SystemResetWarning,0819.2,5.00,000.00,018.9,018.2,000.0,027.3,020.0,6.6,0003.3,0012.30,0004.14,0003.39
2024-01-12 00:48:00,SystemResetWarning,0819.4,5.00,000.00,018.9,018.2,000.0,027.3,020.0,6.6,0003.0,0012.18,0004.11,0003.39
2024-01-12 00:49:00,SystemResetWarning,0819.4,4.98,000.00,018.9,018.1,000.0,027.3,020.0,6.6,0003.1,0012.33,0004.08,0003.39
2024-01-12 00:50:00,SystemResetWarning,0819.3,5.00,000.00,018.9,018.1,000.0,027.3,020.0,6.6,0003.4,0012.47,0004.08,0003.38
2024-01-12 00:51:00,SystemResetWarning,0819.4,5.01,000.00,018.9,018.1,000.0,027.3,020.0,6.7,0003.6,0012.48,0004.07,0003.38
2024-01-12 00:52:00,SystemResetWarning,0819.4,5.01,000.00,018.9,018.1,000.0,027.3,020.0,6.7,0001.2,0011.40,0004.06,0003.38
2024-01-12 00:53:00,SystemResetWarning,0819.3,5.01,000.00,018.9,018.1,000.0,027.3,020.0,6.7,0000.0,0011.44,0004.08,0003.39
2024-01-12 00:54:00,SystemResetWarning,0819.2,5.00,000.00,018.9,018.1,000.0,027.3,020.0,6.7,0000.0,0011.79,0004.11,0003.41
2024-01-12 00:55:00,SystemResetWarning,0819.0,4.99,000.00,018.9,018.0,000.0,027.3,020.0,6.7,0000.0,0011.99,0004.13,0003.41
2024-01-12 00:56:00,SystemResetWarning,0819.0,4.99,000.00,018.9,018.0,000.0,027.3,020.0,6.7,0000.0,0010.98,0004.15,0003.43
2024-01-12 00:57:00,SystemResetWarning,0819.0,5.01,000.00,018.9,018.0,000.0,027.3,020.0,6.7,0000.0,0010.63,0004.20,0003.44
2024-01-12 00:58:00,SystemResetWarning,0819.0,5.01,000.00,018.9,017.9,000.0,027.3,020.0,6.7,0000.0,0010.13,0004.21,0003.46
2024-01-12 00:59:00,SystemResetWarning,0819.0,5.00,000.00,018.9,017.9,000.0,027.3,020.0,6.7,0000.0,0010.24,0004.25,0003.47
